When you browse on this site, cookies collect data to enhance your experience and personalize the content and advertising you see.
Visit our Privacy Policy to learn more. By continuing to use the site, you agree to this use of cookies and data.

Tiempo cada hora Córdoba

Hoy, 14 Agosto, Viernes

Tiempo Temperatura Precipitaciones Viento Presión Humedad
00:00 +9°C° 0 mm 3 mps 720 mmHg 34%
01:00 +9°C° 0 mm 3 mps 719 mmHg 35%
02:00 +9°C° 0 mm 3 mps 718 mmHg 33%
03:00 +8°C° 0 mm 2 mps 718 mmHg 34%
04:00 +8°C° 0 mm 2 mps 718 mmHg 35%
05:00 +7°C° 0 mm 2 mps 717 mmHg 37%
06:00 +8°C° 0 mm 2 mps 718 mmHg 37%
07:00 +9°C° 0 mm 2 mps 718 mmHg 37%
08:00 +10°C° 0 mm 1 mps 718 mmHg 37%
09:00 +13°C° 0 mm 1 mps 719 mmHg 33%
10:00 +16°C° 0 mm 2 mps 719 mmHg 29%
11:00 +19°C° 0 mm 2 mps 719 mmHg 25%
12:00 +20°C° 0 mm 3 mps 719 mmHg 22%
13:00 +21°C° 0 mm 3 mps 719 mmHg 20%
14:00 +22°C° 0 mm 4 mps 719 mmHg 17%
15:00 +22°C° 0 mm 4 mps 719 mmHg 17%
16:00 +21°C° 0 mm 5 mps 719 mmHg 18%
17:00 +20°C° 0 mm 5 mps 720 mmHg 18%
18:00 +17°C° 0 mm 5 mps 720 mmHg 21%
19:00 +15°C° 0 mm 5 mps 721 mmHg 25%
20:00 +12°C° 0 mm 4 mps 721 mmHg 28%
21:00 +11°C° 0 mm 4 mps 722 mmHg 31%
22:00 +10°C° 0 mm 4 mps 722 mmHg 35%
23:00 +9°C° 0 mm 3 mps 723 mmHg 38%

Mañana, 15 Agosto, Sábado

Tiempo Temperatura Precipitaciones Viento Presión Humedad
00:00 +9°C° 0 mm 3 mps 723 mmHg 38%
01:00 +8°C° 0 mm 2 mps 723 mmHg 38%
02:00 +8°C° 0 mm 2 mps 723 mmHg 39%
03:00 +8°C° 0 mm 1 mps 723 mmHg 38%
04:00 +8°C° 0 mm 1 mps 722 mmHg 37%
05:00 +8°C° 0 mm 1 mps 722 mmHg 36%
06:00 +8°C° 0 mm 1 mps 723 mmHg 34%
07:00 +9°C° 0 mm 1 mps 723 mmHg 32%
08:00 +9°C° 0 mm 0 mps 723 mmHg 30%
09:00 +12°C° 0 mm 1 mps 723 mmHg 26%
10:00 +14°C° 0 mm 2 mps 723 mmHg 22%
11:00 +16°C° 0 mm 2 mps 724 mmHg 17%
12:00 +17°C° 0 mm 2 mps 723 mmHg 17%
13:00 +18°C° 0 mm 3 mps 723 mmHg 16%
14:00 +19°C° 0 mm 3 mps 723 mmHg 15%
15:00 +19°C° 0 mm 3 mps 722 mmHg 16%
16:00 +18°C° 0 mm 3 mps 722 mmHg 16%
17:00 +18°C° 0 mm 3 mps 722 mmHg 17%
18:00 +15°C° 0 mm 2 mps 723 mmHg 20%
19:00 +13°C° 0 mm 2 mps 723 mmHg 24%
20:00 +11°C° 0 mm 1 mps 724 mmHg 27%
21:00 +10°C° 0 mm 1 mps 724 mmHg 28%
22:00 +9°C° 0 mm 1 mps 725 mmHg 29%
23:00 +8°C° 0 mm 1 mps 725 mmHg 31%

Pasado mañana, 16 Agosto, Domingo

Tiempo Temperatura Precipitaciones Viento Presión Humedad
00:00 +8°C° 0 mm 1 mps 725 mmHg 32%
01:00 +8°C° 0 mm 1 mps 725 mmHg 32%
02:00 +7°C° 0 mm 1 mps 725 mmHg 33%
03:00 +7°C° 0 mm 1 mps 725 mmHg 34%
04:00 +7°C° 0 mm 1 mps 724 mmHg 35%
05:00 +6°C° 0 mm 1 mps 724 mmHg 36%
06:00 +7°C° 0 mm 1 mps 724 mmHg 36%
07:00 +7°C° 0 mm 2 mps 724 mmHg 35%
08:00 +8°C° 0 mm 2 mps 725 mmHg 35%
09:00 +11°C° 0 mm 3 mps 725 mmHg 31%
10:00 +14°C° 0 mm 4 mps 725 mmHg 28%
11:00 +16°C° 0 mm 5 mps 725 mmHg 24%
12:00 +19°C° 0 mm 5 mps 724 mmHg 24%
13:00 +20°C° 0 mm 5 mps 724 mmHg 23%
14:00 +21°C° 0 mm 5 mps 723 mmHg 22%
15:00 +20°C° 0 mm 5 mps 723 mmHg 24%
16:00 +19°C° 0 mm 5 mps 722 mmHg 25%
17:00 +19°C° 0 mm 5 mps 722 mmHg 27%
18:00 +17°C° 0 mm 4 mps 722 mmHg 31%
19:00 +14°C° 0 mm 3 mps 722 mmHg 36%
20:00 +12°C° 0 mm 3 mps 722 mmHg 40%
21:00 +12°C° 0 mm 3 mps 723 mmHg 40%
22:00 +11°C° 0 mm 3 mps 723 mmHg 41%
23:00 +11°C° 0 mm 3 mps 723 mmHg 41%

17 Agosto, Lunes

Tiempo Temperatura Precipitaciones Viento Presión Humedad
00:00 +12°C° 0 mm 2 mps 723 mmHg 42%
01:00 +12°C° 0 mm 2 mps 723 mmHg 43%
02:00 +10°C° 0 mm 2 mps 723 mmHg 44%
03:00 +10°C° 0 mm 2 mps 722 mmHg 45%
04:00 +11°C° 0 mm 1 mps 722 mmHg 46%
05:00 +10°C° 0 mm 1 mps 722 mmHg 47%
06:00 +11°C° 0 mm 1 mps 722 mmHg 45%
07:00 +11°C° 0 mm 1 mps 722 mmHg 43%
08:00 +12°C° 0 mm 1 mps 723 mmHg 42%
09:00 +15°C° 0 mm 2 mps 723 mmHg 36%
10:00 +18°C° 0 mm 2 mps 723 mmHg 31%
11:00 +20°C° 0 mm 3 mps 723 mmHg 25%
12:00 +21°C° 0 mm 4 mps 722 mmHg 24%
13:00 +22°C° 0 mm 4 mps 721 mmHg 22%
14:00 +25°C° 0 mm 5 mps 720 mmHg 21%
15:00 +23°C° 0 mm 5 mps 719 mmHg 22%
16:00 +22°C° 0 mm 5 mps 719 mmHg 24%
17:00 +21°C° 0 mm 6 mps 718 mmHg 26%
18:00 +19°C° 0 mm 5 mps 718 mmHg 31%
19:00 +17°C° 0 mm 4 mps 718 mmHg 36%
20:00 +14°C° 0 mm 4 mps 718 mmHg 41%
21:00 +13°C° 0 mm 4 mps 718 mmHg 41%
22:00 +13°C° 0 mm 4 mps 718 mmHg 41%
23:00 +13°C° 0 mm 4 mps 718 mmHg 42%

18 Agosto, Martes

Tiempo Temperatura Precipitaciones Viento Presión Humedad
00:00 +12°C° 0 mm 4 mps 717 mmHg 41%
01:00 +12°C° 0 mm 3 mps 717 mmHg 41%
02:00 +12°C° 0 mm 3 mps 716 mmHg 41%
03:00 +12°C° 0 mm 3 mps 716 mmHg 42%
04:00 +12°C° 0 mm 2 mps 716 mmHg 43%
05:00 +12°C° 0 mm 2 mps 715 mmHg 45%
06:00 +13°C° 0 mm 2 mps 716 mmHg 42%
07:00 +13°C° 0 mm 1 mps 716 mmHg 40%
08:00 +14°C° 0 mm 1 mps 716 mmHg 37%
09:00 +14°C° 0 mm 3 mps 717 mmHg 35%
10:00 +16°C° 0 mm 5 mps 717 mmHg 33%
11:00 +17°C° 0 mm 8 mps 717 mmHg 31%
12:00 +17°C° 0 mm 8 mps 717 mmHg 30%
13:00 +17°C° 0 mm 8 mps 717 mmHg 28%
14:00 +18°C° 0 mm 8 mps 717 mmHg 27%
15:00 +17°C° 0 mm 7 mps 717 mmHg 27%
16:00 +16°C° 0 mm 7 mps 718 mmHg 28%
17:00 +15°C° 0 mm 7 mps 718 mmHg 28%
18:00 +12°C° 0 mm 7 mps 719 mmHg 34%
19:00 +10°C° 0 mm 7 mps 721 mmHg 40%
20:00 +8°C° 0 mm 7 mps 722 mmHg 46%
21:00 +8°C° 0 mm 7 mps 723 mmHg 42%
22:00 +7°C° 0 mm 6 mps 724 mmHg 38%
23:00 +7°C° 0 mm 5 mps 724 mmHg 34%

19 Agosto, Miércoles

Tiempo Temperatura Precipitaciones Viento Presión Humedad
00:00 +7°C° 0 mm 5 mps 725 mmHg 33%
01:00 +5°C° 0 mm 6 mps 725 mmHg 32%
02:00 +5°C° 0 mm 6 mps 726 mmHg 31%
03:00 +6°C° 0 mm 5 mps 726 mmHg 30%
04:00 +6°C° 0 mm 5 mps 726 mmHg 29%
05:00 +6°C° 0 mm 4 mps 727 mmHg 29%
06:00 +6°C° 0 mm 5 mps 727 mmHg 29%
07:00 +4°C° 0 mm 6 mps 728 mmHg 30%
08:00 +4°C° 0 mm 6 mps 729 mmHg 30%
09:00 +5°C° 0 mm 7 mps 729 mmHg 28%
10:00 +6°C° 0 mm 7 mps 730 mmHg 26%
11:00 +8°C° 0 mm 7 mps 730 mmHg 25%
12:00 +9°C° 0 mm 7 mps 730 mmHg 23%
13:00 +9°C° 0 mm 6 mps 730 mmHg 21%
14:00 +10°C° 0 mm 6 mps 729 mmHg 20%
15:00 +9°C° 0 mm 6 mps 730 mmHg 20%
16:00 +9°C° 0 mm 7 mps 730 mmHg 20%
17:00 +9°C° 0 mm 7 mps 730 mmHg 21%
18:00 +7°C° 0 mm 6 mps 731 mmHg 30%
19:00 +5°C° 0 mm 5 mps 732 mmHg 39%
20:00 +4°C° 0 mm 4 mps 732 mmHg 48%
21:00 +3°C° 0 mm 4 mps 733 mmHg 47%
22:00 +3°C° 0 mm 4 mps 734 mmHg 47%
23:00 +1°C° 0 mm 4 mps 734 mmHg 46%
Mostrar más